Home > Weather > Alfeld (Leine) > Past weeks

Flag for Germany Weather for the Past 2 Weeks in Alfeld (Leine), Lower Saxony, Germany

Now
48 °F

Passing clouds.


Feels Like: 45 °F
Forecast: 35 / 58 °F
Wind: 8 mph from Northwest

Location: Braunschweig Wolfsburg

Current Time: May 3, 2016 at 10:31:20 PM

Latest Report: May 3, 2016 at 9:50 PM


Visibility: N/A

Pressure: 30.24 "Hg

Humidity: 66%

Dew Point: 37 °F

Location of Alfeld (Leine)Location

Historic Weather in Alfeld (Leine) — Graph

°F

Alfeld (Leine) Temperature Yesterday

Maximum temperature yesterday: 68 °F (at 4:20 PM)
Minimum temperature yesterday: 39 °F (at 5:50 AM)
Average temperature yesterday: 59 °F

High & Low Weather Summary for the Past Weeks

 TemperatureHumidityPressure
High68 °F (May 2, 4:20 PM)100% (Apr 22, 7:50 AM)30.42 "Hg (Apr 22, 7:50 AM)
Low32 °F (Apr 21, 6:50 AM)29% (Apr 21, 4:20 PM)29.45 "Hg (Apr 26, 6:50 AM)
Average48 °F63%29.98 "Hg
* Reported Apr 18 7:20 PM — May 3 7:50 PM, Alfeld (Leine), Weather by CustomWeather, © 2016

Note: Actual official high and low records may vary slightly from our data, if they occured in-between our weather recording intervals... More about our weather records

Advertising

Alfeld (Leine) Weather History for the Previous 24 Hours

Scroll right to see more
 ConditionsComfort  
Time TempWeatherWind HumidityBarometerVisibility
7:50 PM
Tue, May 3
52 °FPassing clouds.7 mph72%30.18 "HgN/A
7:20 PM52 °FPassing clouds.7 mph77%30.18 "HgN/A
6:50 PM50 °FSunny.6 mph82%30.15 "Hg10 mi
6:20 PM50 °FMore clouds than sun.8 mph82%30.15 "HgN/A
5:50 PM52 °FBroken clouds.7 mph77%30.15 "HgN/A
5:20 PM52 °FPartly sunny.7 mph77%30.15 "HgN/A
4:50 PM50 °FMostly cloudy.5 mph88%30.15 "HgN/A
4:20 PM50 °FOvercast.6 mph88%30.15 "HgN/A
3:50 PM48 °FLight rain. Mostly cloudy.6 mph94%30.15 "HgN/A
3:20 PM48 °FLight rain. More clouds than sun.7 mph94%30.15 "HgN/A
2:50 PM48 °FLight rain. Cloudy.8 mph87%30.12 "HgN/A
2:20 PM48 °FLight rain. Cloudy.12 mph94%30.12 "HgN/A
1:20 PM50 °FMore clouds than sun.10 mph82%30.12 "HgN/A
12:50 PM50 °FMostly cloudy.15 mph82%30.09 "HgN/A
12:20 PM52 °FDrizzle. Mostly cloudy.14 mph82%30.09 "HgN/A
11:50 AM54 °FMore clouds than sun.13 mph77%30.07 "HgN/A
11:20 AM57 °FMore clouds than sun.7 mph67%30.07 "HgN/A
10:50 AM57 °FPartly sunny.8 mph67%30.07 "HgN/A
10:20 AM57 °FPassing clouds.8 mph67%30.04 "HgN/A
9:50 AM57 °FSunny.7 mph67%30.04 "Hg10 mi
9:20 AM57 °FSunny.6 mph63%30.04 "Hg10 mi
8:50 AM55 °FSunny.5 mph67%30.04 "Hg10 mi
8:20 AM54 °FSunny.6 mph72%30.04 "Hg10 mi
7:50 AM52 °FSunny.5 mph82%30.04 "Hg10 mi
7:20 AM46 °FSunny.2 mph82%30.04 "Hg10 mi
6:50 AM45 °FSunny.No wind81%30.04 "Hg10 mi
10:50 PM
Mon, May 2
50 °FClear.2 mph71%30.09 "Hg10 mi
Weather by CustomWeather, © 2016

See weather overviewHow to use our weather pages